Regional Weather Roundup
Issued by NWS

Home | Current Version | Previous Version | Text Only | Print | Product List | Glossary Off
Versions: 1 2 3 4 5 6 7 8 9 10 11 12 13 14 15 16 17 18 19 20 21 22 23 24 25 26 27 28 29 30 31 32 33 34 35 36 37 38 39 40 41 42 43 44 45 46 47 48 49 50

334
ASUS43 KMKX 280400
RWRWI

WISCONSIN REGIONAL WEATHER ROUNDUP
NATIONAL WEATHER SERVICE MILWAUKEE/SULLIVAN WI
1100 PM CDT SAT MAY 27 2017

NOTE: "FAIR" INDICATES FEW OR NO CLOUDS BELOW 12,000 FEET WITH NO
SIGNIFICANT WEATHER AND/OR OBSTRUCTIONS TO VISIBILITY.

WIZ001-002-006>008-014>016-023>028-280500-
NORTHWEST WISCONSIN

CITY           SKY/WX    TMP DP  RH WIND       PRES   REMARKS
SUPERIOR ARPT  NOT AVBL
ASHLAND        CLOUDY    60  46  59 S8        29.79S
HAYWARD        PTCLDY    56  47  71 S5        29.82F
SIREN          CLOUDY    61  46  59 CALM      29.82F
CUMBERLAND     CLEAR     54  50  87 SW5       29.84F
RICE LAKE      MOCLDY    57  49  74 S3        29.85F
CHETEK         CLEAR     54  50  86 CALM      29.84F
LADYSMITH      CLOUDY    59  50  73 SW3       29.86S
EAU CLAIRE     CLEAR     55  49  80 SW3       29.84S
MENOMONIE      CLEAR     58  47  67 CALM      29.85F
NEW RICHMOND   CLOUDY    59  49  69 S5        29.84F
OSCEOLA        CLOUDY    62  51  68 S7        29.85F
$$

WIZ003>005-009-010-017-018-280500-
NORTH CENTRAL WISCONSIN

CITY           SKY/WX    TMP DP  RH WIND       PRES   REMARKS
MANITOWISH WTR CLOUDY    54  51  87 S6        29.83F
ARBOR VITAE    CLOUDY    62  50  64 W6        29.83F
WOODRUFF       CLOUDY    62  50  64 W6        29.83F
RHINELANDER    CLOUDY    58  49  72 CALM      29.84F
EAGLE RIVER    CLOUDY    60  46  59 CALM      29.83F
LAND O LAKES   CLOUDY    56  50  80 CALM      29.84F
PHILLIPS       CLOUDY    59  50  73 SW5       29.83F
TOMAHAWK       PTCLDY    57  49  76 CALM      29.84F
MEDFORD        CLOUDY    59  49  69 SW3       29.85F
MERRILL        CLOUDY    61  51  70 SW3       29.85S
$$

WIZ029-030-035-036-043>047-280500-
CENTRAL WISCONSIN

CITY           SKY/WX    TMP DP  RH WIND       PRES   REMARKS
WAUSAU         LGT RAIN  61  53  75 SW5       29.83F
MOSINEE        DRIZZLE   59  52  77 W6        29.87S
MARSHFIELD     CLOUDY    58  52  80 W5        29.84F
STEVENS POINT  RAIN      58  53  81 W5        29.86R
WAUPACA        CLOUDY    67  51  56 W5        29.84R
WAUTOMA        CLOUDY    65  52  62 NW9       29.85
WISC RAPIDS    CLOUDY    59  55  87 N3        29.86F
CAMP DOUGLAS   NOT AVBL
$$

WIZ011>013-019>022-031-037>040-048>050-280500-
NORTHEAST WISCONSIN

CITY           SKY/WX    TMP DP  RH WIND       PRES   REMARKS
ANTIGO         CLOUDY    59  51  75 W6        29.85S
SHAWANO        CLOUDY    66  51  57 W3        29.83S
OCONTO         CLOUDY    60  56  86 CALM      29.80S
STURGEON BAY   PTCLDY    59  53  80 SW6       29.82R
GREEN BAY      CLOUDY    64  60  87 CALM      29.81R
MANITOWOC      NOT AVBL
APPLETON       PTCLDY    63  52  67 W7        29.82R
CLINTONVILLE   CLOUDY    64  50  59 CALM      29.83S
OSHKOSH        CLOUDY    66  57  72 W5        29.82R
$$

WIZ032>034-041-042-053>061-280500-
SOUTHWEST WISCONSIN

CITY           SKY/WX    TMP DP  RH WIND       PRES   REMARKS
LA CROSSE      CLOUDY    60  57  89 CALM      29.85F
SPARTA         CLOUDY    56  55  99 CALM      29.86F
VIROQUA        CLOUDY    58  52  79 SW3       29.86F
BOSCOBEL       CLOUDY    61  59  93 CALM      29.84S
PRAIRIE DU CHI CLOUDY    61  58  91 CALM      29.84F
PLATTEVILLE    CLOUDY    62  62  99 CALM      29.85S
$$

WIZ056-057-062-063-064-067-068-280500-
SOUTH CENTRAL WISCONSIN

CITY           SKY/WX    TMP DP  RH WIND       PRES   REMARKS
REEDSBURG      CLOUDY    62  59  90 CALM      29.84F
BARABOO/DELLS  LGT RAIN  63  54  74 NW3       29.86S
LONE ROCK      NOT AVBL
MINERAL POINT  CLOUDY    63  61  94 N6        29.84F
MADISON        CLOUDY    65  57  75 N3        29.82F
MIDDLETON      CLOUDY    65  58  78 NW5       29.84F
WATERTOWN      CLOUDY    65  60  83 CALM      29.82F
MONROE         CLOUDY    64  61  88 CALM      29.85R
JANESVILLE     CLOUDY    68  61  77 CALM      29.83F
$$

WIZ051-052-058>065-066-070>072-280500-
SOUTHEAST WISCONSIN

CITY           SKY/WX    TMP DP  RH WIND       PRES   REMARKS
MILWAUKEE      CLOUDY    65  54  67 SW3       29.85R
WAUKESHA       CLOUDY    63  52  67 S5        29.86
MILWAUKEE/TIMM   N/A     63  50  63 S5        29.85S
RACINE         MOCLDY    61  51  70 SW3       29.86S
KENOSHA        CLOUDY    62  53  72 S3        29.85S
FOND DU LAC    CLOUDY    66  54  65 SW3       29.83R
SHEBOYGAN      CLOUDY    59  56  89 SW6       29.83S
WEST BEND      CLOUDY    61  57  88 CALM      29.84S
JUNEAU         CLOUDY    66  56  68 CALM      29.85R
$$

LSZ147-162-280500-
LAKE SUPERIOR

STATION/POSITION TIME  TEMP    WIND        PRES    WAVE
                       AIR SEA DIR/SP/G            HT/PER
                 (UTC) (F)     (DEG/KT/KT) (MB)    (FT/S)
W MID LAKE BUOY  0250   48 37  200/ 10/ 10 1008.7F   0
DEVILS ISLAND    0300   67     180/ 10/ 13 1007.7F
PORT WING        0340          200/  6/ 10 1008.1F
SAXON HARBOR     0340   61     190/  5/  8 1008.5S
$$

LMZ867-665-643>646-280500-
LAKE MICHIGAN

STATION/POSITION TIME  TEMP    WIND        PRES    WAVE
                       AIR SEA DIR/SP/G            HT/PER
                 (UTC) (F)     (DEG/KT/KT) (MB)    (FT/S)
CHAMBERS ISLAND  0340   60     190/  5/  7 1008.8S
N MID LAKE BUOY  0250   47 42  190/ 10/ 10 1010.6F   1
NORTHPORT PIER   0340   60     160/  4/  8 1008.8F
KEWAUNEE LAKESHO 0330   52     190/  5/  5 1009.3F
SHEBOYGAN LAKESH 0300   60     200/  7/  8 1009.9F
PORT WASHINGTON  0340   56      CALM  /  1 1011.5R
ATWATER BUOY     0209   54     150/  4/  4 1010.4F
MILWAUKEE LAKESH 0330   57        CALM       N/A
S MID LAKE BUOY  0250   53 50  100/  6/  6 1010.8F   0
KENOSHA   LAKESH 0300   58     150/  2/  2 1010.5
$$

TC  - TEMPERATURE IN CELSIUS
VSB - VISIBILITY IN STATUTE MILES
WCI - WIND CHILL INDEX
HX  - HEAT INDEX





USA.gov is the U.S. government's official web portal to all federal, state and local government web resources and services.